Time,TemperatureF,DewpointF,PressureIn,WindDirection,WindDirectionDegrees,WindSpeedMPH,WindSpeedGustMPH,Humidity,HourlyPrecipIn,Conditions,Clouds,dailyrainin,SoftwareType,DateUTC
2013-04-09 00:00:00,46.4,42.8,30.27,SSE,156,2.0,6.0,87,0.00,,---,0.05,VWS V14.01,2013-04-09 07:00:00,
2013-04-09 00:05:00,46.3,42.7,30.27,South,170,0.0,5.0,87,0.00,,---,0.00,VWS V14.01,2013-04-09 07:05:00,
2013-04-09 00:10:00,46.2,42.5,30.27,SSE,166,1.0,6.0,87,0.00,,---,0.00,VWS V14.01,2013-04-09 07:10:00,
2013-04-09 00:15:00,46.2,42.5,30.27,South,169,4.0,6.0,87,0.00,,---,0.00,VWS V14.01,2013-04-09 07:15:00,
2013-04-09 00:20:00,46.1,42.5,30.27,SSE,160,2.0,3.0,87,0.00,,---,0.00,VWS V14.01,2013-04-09 07:20:00,
2013-04-09 00:25:00,46.1,42.5,30.27,SSE,158,1.0,3.0,87,0.00,,---,0.00,VWS V14.01,2013-04-09 07:25:00,
2013-04-09 00:30:00,46.0,42.3,30.28,SSE,157,2.0,4.0,87,0.00,,---,0.00,VWS V14.01,2013-04-09 07:30:00,
2013-04-09 00:35:00,45.9,42.3,30.28,SSE,166,2.0,3.0,87,0.00,,---,0.00,VWS V14.01,2013-04-09 07:35:00,
2013-04-09 00:40:00,45.8,42.5,30.29,SSE,162,2.0,4.0,88,0.00,,---,0.00,VWS V14.01,2013-04-09 07:40:00,
2013-04-09 00:45:00,45.6,42.3,30.29,South,169,1.0,3.0,88,0.00,,---,0.00,VWS V14.01,2013-04-09 07:45:00,
2013-04-09 00:50:00,45.6,42.0,30.29,SE,142,1.0,4.0,87,0.00,,---,0.00,VWS V14.01,2013-04-09 07:50:00,
2013-04-09 00:55:00,45.4,42.1,30.29,SE,131,2.0,5.0,88,0.00,,---,0.00,VWS V14.01,2013-04-09 07:55:00,
2013-04-09 01:00:00,45.4,42.1,30.29,South,191,1.0,5.0,88,0.00,,---,0.00,VWS V14.01,2013-04-09 08:00:00,
2013-04-09 01:05:00,45.4,42.1,30.29,South,188,1.0,6.0,88,0.00,,---,0.00,VWS V14.01,2013-04-09 08:05:00,
2013-04-09 01:10:00,45.3,42.0,30.29,SSE,158,1.0,4.0,88,0.00,,---,0.00,VWS V14.01,2013-04-09 08:10:00,
2013-04-09 01:15:00,45.2,41.9,30.29,SSE,150,3.0,4.0,88,0.00,,---,0.00,VWS V14.01,2013-04-09 08:15:00,
2013-04-09 01:20:00,45.2,41.6,30.29,South,171,2.0,4.0,87,0.00,,---,0.00,VWS V14.01,2013-04-09 08:20:00,
2013-04-09 01:25:00,45.2,41.6,30.29,SSE,158,2.0,4.0,87,0.00,,---,0.00,VWS V14.01,2013-04-09 08:25:00,
2013-04-09 01:30:00,45.1,41.5,30.29,SE,127,0.0,6.0,87,0.00,,---,0.00,VWS V14.01,2013-04-09 08:30:00,
2013-04-09 01:35:00,45.1,41.5,30.30,SSE,148,1.0,2.0,87,0.00,,---,0.00,VWS V14.01,2013-04-09 08:35:00,
2013-04-09 01:40:00,45.0,41.4,30.30,SSE,158,0.0,3.0,87,0.00,,---,0.00,VWS V14.01,2013-04-09 08:40:00,
2013-04-09 01:45:00,44.9,41.3,30.30,SSE,158,2.0,3.0,87,0.00,,---,0.00,VWS V14.01,2013-04-09 08:45:00,
2013-04-09 01:50:00,44.9,41.3,30.31,South,169,3.0,3.0,87,0.00,,---,0.00,VWS V14.01,2013-04-09 08:50:00,
2013-04-09 01:55:00,44.8,41.2,30.30,ESE,122,1.0,3.0,87,0.00,,---,0.00,VWS V14.01,2013-04-09 08:55:00,
2013-04-09 02:00:00,44.8,40.9,30.30,SSE,162,1.0,3.0,86,0.00,,---,0.00,VWS V14.01,2013-04-09 09:00:00,
2013-04-09 02:05:00,44.8,40.9,30.31,SSE,147,1.0,4.0,86,0.00,,---,0.00,VWS V14.01,2013-04-09 09:05:00,
2013-04-09 02:10:00,44.7,40.8,30.31,SE,136,0.0,4.0,86,0.00,,---,0.00,VWS V14.01,2013-04-09 09:10:00,
2013-04-09 02:15:00,44.6,41.0,30.31,South,178,1.0,5.0,87,0.00,,---,0.00,VWS V14.01,2013-04-09 09:15:00,
2013-04-09 02:20:00,44.5,40.9,30.31,South,179,3.0,5.0,87,0.00,,---,0.00,VWS V14.01,2013-04-09 09:20:00,
2013-04-09 02:25:00,44.5,40.9,30.31,South,174,1.0,2.0,87,0.00,,---,0.00,VWS V14.01,2013-04-09 09:25:00,
2013-04-09 02:30:00,44.4,40.8,30.31,ESE,121,3.0,3.0,87,0.00,,---,0.00,VWS V14.01,2013-04-09 09:30:00,
2013-04-09 02:35:00,44.3,40.7,30.30,SSE,147,0.0,3.0,87,0.00,,---,0.00,VWS V14.01,2013-04-09 09:35:00,
2013-04-09 02:40:00,44.2,40.9,30.30,SE,141,2.0,2.0,88,0.00,,---,0.00,VWS V14.01,2013-04-09 09:40:00,
2013-04-09 02:45:00,44.2,40.9,30.30,SE,146,1.0,5.0,88,0.00,,---,0.00,VWS V14.01,2013-04-09 09:45:00,
2013-04-09 02:50:00,44.2,40.9,30.30,South,172,3.0,4.0,88,0.00,,---,0.00,VWS V14.01,2013-04-09 09:50:00,
2013-04-09 02:55:00,44.1,40.8,30.29,SE,143,1.0,3.0,88,0.00,,---,0.00,VWS V14.01,2013-04-09 09:55:00,
2013-04-09 03:00:00,44.1,40.8,30.30,South,184,3.0,4.0,88,0.00,,---,0.00,VWS V14.01,2013-04-09 10:00:00,
2013-04-09 03:05:00,44.1,40.8,30.30,SE,141,0.0,4.0,88,0.00,,---,0.00,VWS V14.01,2013-04-09 10:05:00,
2013-04-09 03:10:00,44.1,40.8,30.30,SSW,193,2.0,6.0,88,0.00,,---,0.00,VWS V14.01,2013-04-09 10:10:00,
2013-04-09 03:15:00,44.2,40.6,30.30,South,169,2.0,5.0,87,0.00,,---,0.00,VWS V14.01,2013-04-09 10:15:00,
2013-04-09 03:20:00,44.2,40.6,30.30,South,184,3.0,5.0,87,0.00,,---,0.00,VWS V14.01,2013-04-09 10:20:00,
2013-04-09 03:25:00,44.3,40.7,30.30,SSW,193,1.0,6.0,87,0.00,,---,0.00,VWS V14.01,2013-04-09 10:25:00,
2013-04-09 03:30:00,44.2,40.6,30.30,SSE,161,3.0,6.0,87,0.00,,---,0.00,VWS V14.01,2013-04-09 10:30:00,
2013-04-09 03:35:00,44.3,40.7,30.30,SSE,153,3.0,5.0,87,0.00,,---,0.00,VWS V14.01,2013-04-09 10:35:00,
2013-04-09 03:40:00,44.3,41.0,30.30,SSE,165,2.0,5.0,88,0.00,,---,0.00,VWS V14.01,2013-04-09 10:40:00,
2013-04-09 03:45:00,44.2,40.9,30.30,SSE,167,1.0,5.0,88,0.00,,---,0.00,VWS V14.01,2013-04-09 10:45:00,
2013-04-09 03:50:00,44.1,40.8,30.30,SSE,150,2.0,7.0,88,0.00,,---,0.00,VWS V14.01,2013-04-09 10:50:00,
2013-04-09 03:55:00,44.1,40.8,30.31,ESE,111,1.0,4.0,88,0.00,,---,0.00,VWS V14.01,2013-04-09 10:55:00,
2013-04-09 04:00:00,44.1,40.8,30.31,South,176,3.0,5.0,88,0.00,,---,0.00,VWS V14.01,2013-04-09 11:00:00,
2013-04-09 04:01:00,44.1,40.8,30.31,ESE,122,3.0,5.0,88,0.00,,---,0.00,VWS V14.01,2013-04-09 11:01:00,
2013-04-09 04:05:00,44.2,40.9,30.31,SE,144,1.0,6.0,88,0.00,,---,0.00,VWS V14.01,2013-04-09 11:05:00,
2013-04-09 04:06:00,44.2,40.9,30.31,SSW,193,2.0,2.0,88,0.00,,---,0.00,VWS V14.01,2013-04-09 11:06:00,
2013-04-09 04:10:00,44.3,41.0,30.31,South,179,0.0,6.0,88,0.00,,---,0.00,VWS V14.01,2013-04-09 11:10:00,
2013-04-09 04:11:00,44.2,40.9,30.31,SE,146,0.0,0.0,88,0.00,,---,0.00,VWS V14.01,2013-04-09 11:11:00,
2013-04-09 04:15:00,44.2,40.9,30.31,SSE,167,1.0,4.0,88,0.00,,---,0.00,VWS V14.01,2013-04-09 11:15:00,
2013-04-09 04:16:00,44.2,40.9,30.31,SSW,193,3.0,3.0,88,0.00,,---,0.00,VWS V14.01,2013-04-09 11:16:00,
2013-04-09 04:20:00,44.3,41.0,30.32,SSW,205,1.0,4.0,88,0.00,,---,0.00,VWS V14.01,2013-04-09 11:20:00,
2013-04-09 04:21:00,44.2,40.9,30.32,SSE,153,2.0,3.0,88,0.00,,---,0.00,VWS V14.01,2013-04-09 11:21:00,
2013-04-09 04:25:00,44.2,40.9,30.32,SSE,162,3.0,5.0,88,0.00,,---,0.00,VWS V14.01,2013-04-09 11:25:00,
2013-04-09 04:27:00,44.2,40.9,30.32,SSW,196,2.0,3.0,88,0.00,,---,0.00,VWS V14.01,2013-04-09 11:27:00,
2013-04-09 04:30:00,44.3,41.0,30.32,SSE,167,3.0,6.0,88,0.00,,---,0.00,VWS V14.01,2013-04-09 11:30:00,
2013-04-09 04:32:00,44.2,40.9,30.32,South,190,2.0,5.0,88,0.00,,---,0.00,VWS V14.01,2013-04-09 11:32:00,
2013-04-09 04:35:00,44.3,41.0,30.32,South,191,2.0,5.0,88,0.00,,---,0.00,VWS V14.01,2013-04-09 11:35:00,
2013-04-09 04:37:00,44.3,41.0,30.32,SSE,167,4.0,5.0,88,0.00,,---,0.00,VWS V14.01,2013-04-09 11:37:00,
2013-04-09 04:40:00,44.3,41.0,30.32,South,176,1.0,5.0,88,0.00,,---,0.00,VWS V14.01,2013-04-09 11:40:00,
2013-04-09 04:42:00,44.3,40.7,30.32,East,91,1.0,3.0,87,0.00,,---,0.00,VWS V14.01,2013-04-09 11:42:00,
2013-04-09 04:45:00,44.3,41.0,30.32,SE,129,2.0,4.0,88,0.00,,---,0.00,VWS V14.01,2013-04-09 11:45:00,
2013-04-09 04:47:00,44.3,41.0,30.32,SSE,148,1.0,2.0,88,0.00,,---,0.00,VWS V14.01,2013-04-09 11:47:00,
2013-04-09 04:50:00,44.2,40.9,30.32,SSW,193,2.0,5.0,88,0.00,,---,0.00,VWS V14.01,2013-04-09 11:50:00,
2013-04-09 04:52:00,44.2,40.9,30.32,SE,143,0.0,3.0,88,0.00,,---,0.00,VWS V14.01,2013-04-09 11:52:00,
2013-04-09 04:55:00,44.3,41.0,30.32,ESE,123,2.0,4.0,88,0.00,,---,0.00,VWS V14.01,2013-04-09 11:55:00,
2013-04-09 04:57:00,44.2,40.9,30.32,SE,124,1.0,3.0,88,0.00,,---,0.00,VWS V14.01,2013-04-09 11:57:00,
2013-04-09 05:00:00,44.2,40.9,30.32,SE,140,1.0,4.0,88,0.00,,---,0.00,VWS V14.01,2013-04-09 12:00:00,
2013-04-09 05:02:00,44.2,40.9,30.32,SSW,201,1.0,1.0,88,0.00,,---,0.00,VWS V14.01,2013-04-09 12:02:00,
2013-04-09 05:05:00,44.2,40.9,30.32,SE,129,1.0,3.0,88,0.00,,---,0.00,VWS V14.01,2013-04-09 12:05:00,
2013-04-09 05:07:00,44.2,40.9,30.32,SSE,153,1.0,2.0,88,0.00,,---,0.00,VWS V14.01,2013-04-09 12:07:00,
2013-04-09 05:10:00,44.2,40.9,30.32,SSE,150,0.0,2.0,88,0.00,,---,0.00,VWS V14.01,2013-04-09 12:10:00,
2013-04-09 05:12:00,44.1,40.8,30.32,SE,139,0.0,0.0,88,0.00,,---,0.00,VWS V14.01,2013-04-09 12:12:00,
2013-04-09 05:15:00,44.2,40.9,30.32,South,176,0.0,3.0,88,0.00,,---,0.00,VWS V14.01,2013-04-09 12:15:00,
2013-04-09 05:17:00,44.1,40.8,30.32,SE,128,1.0,1.0,88,0.00,,---,0.00,VWS V14.01,2013-04-09 12:17:00,
2013-04-09 05:20:00,44.1,40.8,30.32,South,188,1.0,3.0,88,0.00,,---,0.00,VWS V14.01,2013-04-09 12:20:00,
2013-04-09 05:22:00,44.1,40.8,30.32,SE,145,1.0,2.0,88,0.00,,---,0.00,VWS V14.01,2013-04-09 12:22:00,
2013-04-09 05:25:00,44.2,40.9,30.32,SSE,168,2.0,4.0,88,0.00,,---,0.00,VWS V14.01,2013-04-09 12:25:00,
2013-04-09 05:27:00,44.1,40.8,30.32,SSE,158,2.0,2.0,88,0.00,,---,0.00,VWS V14.01,2013-04-09 12:27:00,
2013-04-09 05:30:00,44.2,40.9,30.32,SSE,157,1.0,4.0,88,0.00,,---,0.00,VWS V14.01,2013-04-09 12:30:00,
2013-04-09 05:32:00,44.2,40.9,30.32,SSW,198,0.0,4.0,88,0.00,,---,0.00,VWS V14.01,2013-04-09 12:32:00,
2013-04-09 05:35:00,44.2,40.9,30.32,East,101,4.0,4.0,88,0.00,,---,0.00,VWS V14.01,2013-04-09 12:35:00,
2013-04-09 05:37:00,44.2,40.9,30.32,South,170,1.0,4.0,88,0.00,,---,0.00,VWS V14.01,2013-04-09 12:37:00,
2013-04-09 05:40:00,44.1,40.8,30.32,SSE,158,1.0,4.0,88,0.00,,---,0.00,VWS V14.01,2013-04-09 12:40:00,
2013-04-09 05:42:00,44.1,40.8,30.32,SE,145,4.0,4.0,88,0.00,,---,0.00,VWS V14.01,2013-04-09 12:42:00,
2013-04-09 05:45:00,44.1,40.8,30.32,SE,135,1.0,4.0,88,0.00,,---,0.00,VWS V14.01,2013-04-09 12:45:00,
2013-04-09 05:47:00,44.1,40.8,30.32,SSE,160,0.0,1.0,88,0.00,,---,0.00,VWS V14.01,2013-04-09 12:47:00,
2013-04-09 05:50:00,44.0,40.7,30.32,SE,136,0.0,3.0,88,0.00,,---,0.00,VWS V14.01,2013-04-09 12:50:00,
2013-04-09 05:52:00,44.0,40.7,30.32,South,187,2.0,2.0,88,0.00,,---,0.00,VWS V14.01,2013-04-09 12:52:00,
2013-04-09 05:55:00,44.0,40.7,30.32,ESE,110,0.0,3.0,88,0.00,,---,0.00,VWS V14.01,2013-04-09 12:55:00,
2013-04-09 05:57:00,44.0,40.7,30.32,ESE,115,0.0,2.0,88,0.00,,---,0.00,VWS V14.01,2013-04-09 12:57:00,
2013-04-09 06:00:00,43.9,40.6,30.32,SE,145,1.0,3.0,88,0.00,,---,0.00,VWS V14.01,2013-04-09 13:00:00,
2013-04-09 06:02:00,43.9,40.6,30.32,SE,127,2.0,3.0,88,0.00,,---,0.00,VWS V14.01,2013-04-09 13:02:00,
2013-04-09 06:05:00,43.9,40.9,30.32,SE,125,0.0,3.0,89,0.00,,---,0.00,VWS V14.01,2013-04-09 13:05:00,
2013-04-09 06:07:00,43.9,40.9,30.32,East,88,2.0,4.0,89,0.00,,---,0.00,VWS V14.01,2013-04-09 13:07:00,
2013-04-09 06:10:00,43.9,40.9,30.32,ESE,110,0.0,4.0,89,0.00,,---,0.00,VWS V14.01,2013-04-09 13:10:00,
2013-04-09 06:12:00,43.9,40.9,30.32,ESE,105,1.0,2.0,89,0.00,,---,0.00,VWS V14.01,2013-04-09 13:12:00,
2013-04-09 06:15:00,43.8,40.8,30.32,SE,143,3.0,3.0,89,0.00,,---,0.00,VWS V14.01,2013-04-09 13:15:00,
2013-04-09 06:17:00,43.8,40.8,30.32,SE,140,2.0,3.0,89,0.00,,---,0.00,VWS V14.01,2013-04-09 13:17:00,
2013-04-09 06:20:00,43.9,40.9,30.32,ESE,106,0.0,4.0,89,0.00,,---,0.00,VWS V14.01,2013-04-09 13:20:00,
2013-04-09 06:22:00,43.9,40.9,30.32,ESE,117,1.0,4.0,89,0.00,,---,0.00,VWS V14.01,2013-04-09 13:22:00,
2013-04-09 06:25:00,43.9,40.9,30.32,ESE,105,1.0,6.0,89,0.00,,---,0.00,VWS V14.01,2013-04-09 13:25:00,
2013-04-09 06:27:00,43.9,40.9,30.32,ESE,115,0.0,1.0,89,0.00,,---,0.00,VWS V14.01,2013-04-09 13:27:00,
2013-04-09 06:30:00,43.9,40.9,30.32,East,97,1.0,5.0,89,0.00,,---,0.00,VWS V14.01,2013-04-09 13:30:00,
2013-04-09 06:32:00,43.9,40.9,30.32,SE,137,0.0,2.0,89,0.00,,---,0.00,VWS V14.01,2013-04-09 13:32:00,
2013-04-09 06:35:00,43.9,40.6,30.32,SSE,152,0.0,2.0,88,0.00,,---,0.00,VWS V14.01,2013-04-09 13:35:00,
2013-04-09 06:37:00,43.9,40.6,30.32,SE,131,1.0,1.0,88,0.00,,---,0.00,VWS V14.01,2013-04-09 13:37:00,
2013-04-09 06:40:00,44.0,40.7,30.32,SSE,162,4.0,4.0,88,0.00,,---,0.00,VWS V14.01,2013-04-09 13:40:00,
2013-04-09 06:42:00,44.0,40.7,30.32,SSE,153,1.0,4.0,88,0.00,,---,0.00,VWS V14.01,2013-04-09 13:42:00,
2013-04-09 06:45:00,44.0,40.7,30.32,ESE,120,2.0,4.0,88,0.00,,---,0.00,VWS V14.01,2013-04-09 13:45:00,
2013-04-09 06:47:00,44.0,40.7,30.32,SSE,150,0.0,2.0,88,0.00,,---,0.00,VWS V14.01,2013-04-09 13:47:00,
2013-04-09 06:50:00,44.1,40.8,30.32,SE,139,0.0,2.0,88,0.00,,---,0.00,VWS V14.01,2013-04-09 13:50:00,
2013-04-09 06:52:00,44.1,40.8,30.32,ESE,118,0.0,1.0,88,0.00,,---,0.00,VWS V14.01,2013-04-09 13:52:00,
2013-04-09 06:55:00,44.1,40.8,30.32,SSE,151,0.0,2.0,88,0.00,,---,0.00,VWS V14.01,2013-04-09 13:55:00,
2013-04-09 06:57:00,44.1,40.8,30.32,SSE,151,0.0,0.0,88,0.00,,---,0.00,VWS V14.01,2013-04-09 13:57:00,
2013-04-09 07:00:00,44.1,40.8,30.32,SSE,148,0.0,1.0,88,0.00,,---,0.00,VWS V14.01,2013-04-09 14:00:00,
2013-04-09 07:02:00,44.1,40.8,30.32,SSE,159,0.0,0.0,88,0.00,,---,0.00,VWS V14.01,2013-04-09 14:02:00,
2013-04-09 07:05:00,44.1,40.8,30.33,SE,129,0.0,0.0,88,0.00,,---,0.00,VWS V14.01,2013-04-09 14:05:00,
2013-04-09 07:07:00,44.1,40.8,30.33,SSW,202,0.0,0.0,88,0.00,,---,0.00,VWS V14.01,2013-04-09 14:07:00,
2013-04-09 07:10:00,44.1,40.8,30.33,SW,226,0.0,0.0,88,0.00,,---,0.00,VWS V14.01,2013-04-09 14:10:00,
2013-04-09 07:12:00,44.1,40.8,30.33,SW,226,0.0,0.0,88,0.00,,---,0.00,VWS V14.01,2013-04-09 14:12:00,
2013-04-09 07:15:00,44.2,40.9,30.33,SE,134,0.0,0.0,88,0.00,,---,0.00,VWS V14.01,2013-04-09 14:15:00,
2013-04-09 07:17:00,44.2,40.9,30.33,SE,133,0.0,0.0,88,0.00,,---,0.00,VWS V14.01,2013-04-09 14:17:00,
2013-04-09 07:20:00,44.3,41.0,30.33,South,171,0.0,0.0,88,0.00,,---,0.00,VWS V14.01,2013-04-09 14:20:00,
2013-04-09 07:22:00,44.3,41.0,30.33,South,171,0.0,0.0,88,0.00,,---,0.00,VWS V14.01,2013-04-09 14:22:00,
2013-04-09 07:25:00,44.4,40.8,30.33,SSE,162,4.0,4.0,87,0.00,,---,0.00,VWS V14.01,2013-04-09 14:25:00,
2013-04-09 07:27:00,44.5,40.9,30.33,SSE,152,1.0,4.0,87,0.00,,---,0.00,VWS V14.01,2013-04-09 14:27:00,
2013-04-09 07:30:00,44.6,41.0,30.33,SSW,195,2.0,4.0,87,0.00,,---,0.00,VWS V14.01,2013-04-09 14:30:00,
2013-04-09 07:32:00,44.6,40.7,30.33,ESE,115,2.0,3.0,86,0.00,,---,0.00,VWS V14.01,2013-04-09 14:32:00,
2013-04-09 07:35:00,44.7,40.8,30.33,SE,135,0.0,4.0,86,0.00,,---,0.00,VWS V14.01,2013-04-09 14:35:00,
2013-04-09 07:37:00,44.8,40.9,30.33,South,170,0.0,1.0,86,0.00,,---,0.00,VWS V14.01,2013-04-09 14:37:00,
2013-04-09 07:40:00,44.9,41.0,30.33,SE,134,1.0,3.0,86,0.00,,---,0.00,VWS V14.01,2013-04-09 14:40:00,
2013-04-09 07:42:00,44.9,41.0,30.33,SSE,165,3.0,3.0,86,0.00,,---,0.00,VWS V14.01,2013-04-09 14:42:00,
2013-04-09 07:45:00,45.0,40.8,30.33,SSE,158,2.0,5.0,85,0.00,,---,0.00,VWS V14.01,2013-04-09 14:45:00,
2013-04-09 07:47:00,45.1,41.2,30.33,SE,144,1.0,3.0,86,0.00,,---,0.00,VWS V14.01,2013-04-09 14:47:00,
2013-04-09 07:50:00,45.1,41.2,30.33,SSE,163,0.0,3.0,86,0.00,,---,0.00,VWS V14.01,2013-04-09 14:50:00,
2013-04-09 07:52:00,45.2,41.3,30.33,ESE,102,1.0,1.0,86,0.00,,---,0.00,VWS V14.01,2013-04-09 14:52:00,
2013-04-09 07:55:00,45.3,41.4,30.33,South,185,2.0,2.0,86,0.00,,---,0.00,VWS V14.01,2013-04-09 14:55:00,
2013-04-09 07:57:00,45.3,41.4,30.33,South,170,1.0,2.0,86,0.00,,---,0.00,VWS V14.01,2013-04-09 14:57:00,
2013-04-09 08:00:00,45.4,41.5,30.33,SSE,150,2.0,2.0,86,0.00,,---,0.00,VWS V14.01,2013-04-09 15:00:00,
2013-04-09 08:02:00,45.4,41.5,30.33,South,169,2.0,2.0,86,0.00,,---,0.00,VWS V14.01,2013-04-09 15:02:00,
2013-04-09 08:05:00,45.4,41.2,30.33,SSE,148,0.0,6.0,85,0.00,,---,0.00,VWS V14.01,2013-04-09 15:05:00,
2013-04-09 08:07:00,45.4,41.2,30.33,SSE,168,1.0,2.0,85,0.00,,---,0.00,VWS V14.01,2013-04-09 15:07:00,
2013-04-09 08:10:00,45.5,41.0,30.33,SSE,166,0.0,3.0,84,0.00,,---,0.00,VWS V14.01,2013-04-09 15:10:00,
2013-04-09 08:12:00,45.5,41.3,30.33,SSE,166,0.0,1.0,85,0.00,,---,0.00,VWS V14.01,2013-04-09 15:12:00,
2013-04-09 08:15:00,45.6,41.0,30.33,SE,139,2.0,5.0,84,0.00,,---,0.00,VWS V14.01,2013-04-09 15:15:00,
2013-04-09 08:17:00,45.6,41.0,30.33,SSE,160,1.0,5.0,84,0.00,,---,0.00,VWS V14.01,2013-04-09 15:17:00,
2013-04-09 08:20:00,45.7,41.2,30.33,SSE,153,1.0,5.0,84,0.00,,---,0.00,VWS V14.01,2013-04-09 15:20:00,
2013-04-09 08:22:00,45.8,41.5,30.33,SSE,154,0.0,1.0,85,0.00,,---,0.00,VWS V14.01,2013-04-09 15:22:00,
2013-04-09 08:25:00,45.9,41.3,30.33,SSE,148,3.0,4.0,84,0.00,,---,0.00,VWS V14.01,2013-04-09 15:25:00,
2013-04-09 08:27:00,45.9,41.7,30.33,SSE,165,0.0,3.0,85,0.00,,---,0.00,VWS V14.01,2013-04-09 15:27:00,
2013-04-09 08:30:00,46.1,41.5,30.33,SSE,154,0.0,3.0,84,0.00,,---,0.00,VWS V14.01,2013-04-09 15:30:00,
2013-04-09 08:32:00,46.1,41.8,30.33,SSE,165,1.0,2.0,85,0.00,,---,0.00,VWS V14.01,2013-04-09 15:32:00,
2013-04-09 08:35:00,46.2,41.6,30.33,SE,143,1.0,4.0,84,0.00,,---,0.00,VWS V14.01,2013-04-09 15:35:00,
2013-04-09 08:37:00,46.3,41.7,30.33,SSE,148,0.0,1.0,84,0.00,,---,0.00,VWS V14.01,2013-04-09 15:37:00,
2013-04-09 08:40:00,46.4,41.8,30.33,East,101,1.0,4.0,84,0.00,,---,0.00,VWS V14.01,2013-04-09 15:40:00,
2013-04-09 08:42:00,46.4,41.8,30.33,SSE,149,2.0,5.0,84,0.00,,---,0.00,VWS V14.01,2013-04-09 15:42:00,
2013-04-09 08:45:00,46.5,41.6,30.33,SSE,156,3.0,5.0,83,0.00,,---,0.00,VWS V14.01,2013-04-09 15:45:00,
2013-04-09 08:47:00,46.5,41.6,30.32,SSE,160,4.0,5.0,83,0.00,,---,0.00,VWS V14.01,2013-04-09 15:47:00,
2013-04-09 08:50:00,46.6,41.4,30.32,SSE,157,5.0,6.0,82,0.00,,---,0.00,VWS V14.01,2013-04-09 15:50:00,
2013-04-09 08:52:00,46.6,41.1,30.32,SSE,153,2.0,5.0,81,0.00,,---,0.00,VWS V14.01,2013-04-09 15:52:00,
2013-04-09 08:55:00,46.7,41.5,30.33,SSE,151,4.0,5.0,82,0.00,,---,0.00,VWS V14.01,2013-04-09 15:55:00,
2013-04-09 08:57:00,46.8,41.3,30.33,South,174,1.0,4.0,81,0.00,,---,0.00,VWS V14.01,2013-04-09 15:57:00,
2013-04-09 09:00:00,46.8,41.3,30.33,SSW,205,0.0,6.0,81,0.00,,---,0.00,VWS V14.01,2013-04-09 16:00:00,
2013-04-09 09:02:00,46.8,41.3,30.33,SSE,151,4.0,5.0,81,0.00,,---,0.00,VWS V14.01,2013-04-09 16:02:00,
2013-04-09 09:05:00,46.9,41.4,30.33,SSE,165,2.0,5.0,81,0.00,,---,0.00,VWS V14.01,2013-04-09 16:05:00,
2013-04-09 09:07:00,46.9,41.1,30.32,SSE,165,4.0,4.0,80,0.00,,---,0.00,VWS V14.01,2013-04-09 16:07:00,
2013-04-09 09:10:00,46.9,41.4,30.32,South,182,0.0,5.0,81,0.00,,---,0.00,VWS V14.01,2013-04-09 16:10:00,
2013-04-09 09:12:00,47.0,41.5,30.33,SSE,162,0.0,4.0,81,0.00,,---,0.00,VWS V14.01,2013-04-09 16:12:00,
2013-04-09 09:15:00,47.1,41.6,30.32,SE,136,1.0,4.0,81,0.00,,---,0.00,VWS V14.01,2013-04-09 16:15:00,
2013-04-09 09:17:00,47.2,41.7,30.32,SSE,167,2.0,3.0,81,0.00,,---,0.00,VWS V14.01,2013-04-09 16:17:00,
2013-04-09 09:20:00,47.4,41.5,30.32,SSW,197,0.0,3.0,80,0.00,,---,0.00,VWS V14.01,2013-04-09 16:20:00,
2013-04-09 09:22:00,47.4,41.2,30.32,SSE,150,4.0,4.0,79,0.00,,---,0.00,VWS V14.01,2013-04-09 16:22:00,
2013-04-09 09:25:00,47.5,41.3,30.32,South,190,4.0,5.0,79,0.00,,---,0.00,VWS V14.01,2013-04-09 16:25:00,
2013-04-09 09:27:00,47.5,41.3,30.32,SW,219,2.0,5.0,79,0.00,,---,0.00,VWS V14.01,2013-04-09 16:27:00,
2013-04-09 09:30:00,47.7,41.5,30.32,SSE,165,3.0,6.0,79,0.00,,---,0.00,VWS V14.01,2013-04-09 16:30:00,
2013-04-09 09:32:00,47.7,41.5,30.32,SE,143,2.0,5.0,79,0.00,,---,0.00,VWS V14.01,2013-04-09 16:32:00,
2013-04-09 09:35:00,47.7,41.2,30.32,South,169,2.0,5.0,78,0.00,,---,0.00,VWS V14.01,2013-04-09 16:35:00,
2013-04-09 09:37:00,47.8,41.9,30.33,SSW,205,0.0,2.0,80,0.00,,---,0.00,VWS V14.01,2013-04-09 16:37:00,
2013-04-09 09:40:00,48.0,42.1,30.33,SW,232,0.0,5.0,80,0.00,,---,0.00,VWS V14.01,2013-04-09 16:40:00,
2013-04-09 09:42:00,48.1,41.9,30.33,WSW,238,0.0,2.0,79,0.00,,---,0.00,VWS V14.01,2013-04-09 16:42:00,
2013-04-09 09:45:00,48.2,42.0,30.33,SW,229,0.0,4.0,79,0.00,,---,0.00,VWS V14.01,2013-04-09 16:45:00,
2013-04-09 09:47:00,48.3,42.1,30.33,WSW,238,3.0,3.0,79,0.00,,---,0.00,VWS V14.01,2013-04-09 16:47:00,
2013-04-09 09:50:00,48.4,41.9,30.33,SSE,153,1.0,5.0,78,0.00,,---,0.00,VWS V14.01,2013-04-09 16:50:00,
2013-04-09 09:52:00,48.4,41.9,30.33,SE,143,4.0,4.0,78,0.00,,---,0.00,VWS V14.01,2013-04-09 16:52:00,
2013-04-09 09:55:00,48.3,41.8,30.33,SSE,147,0.0,5.0,78,0.00,,---,0.00,VWS V14.01,2013-04-09 16:55:00,
2013-04-09 09:57:00,48.3,42.1,30.33,WSW,255,3.0,3.0,79,0.00,,---,0.00,VWS V14.01,2013-04-09 16:57:00,
2013-04-09 10:00:00,48.2,41.3,30.33,SW,229,1.0,4.0,77,0.00,,---,0.00,VWS V14.01,2013-04-09 17:00:00,
2013-04-09 10:02:00,48.2,41.3,30.33,SW,219,3.0,5.0,77,0.00,,---,0.00,VWS V14.01,2013-04-09 17:02:00,
2013-04-09 10:05:00,48.1,41.2,30.33,West,277,0.0,5.0,77,0.00,,---,0.00,VWS V14.01,2013-04-09 17:05:00,
2013-04-09 10:07:00,48.1,41.6,30.33,WSW,245,2.0,3.0,78,0.00,,---,0.00,VWS V14.01,2013-04-09 17:07:00,
2013-04-09 10:10:00,48.2,41.7,30.33,South,188,0.0,3.0,78,0.00,,---,0.00,VWS V14.01,2013-04-09 17:10:00,
2013-04-09 10:12:00,48.2,41.7,30.33,SSW,196,0.0,1.0,78,0.00,,---,0.00,VWS V14.01,2013-04-09 17:12:00,
2013-04-09 10:15:00,48.2,41.7,30.33,SSW,192,0.0,2.0,78,0.00,,---,0.00,VWS V14.01,2013-04-09 17:15:00,
2013-04-09 10:17:00,48.3,41.8,30.33,SW,228,0.0,2.0,78,0.00,,---,0.00,VWS V14.01,2013-04-09 17:17:00,
2013-04-09 10:20:00,48.4,41.9,30.33,SSE,154,2.0,2.0,78,0.00,,---,0.00,VWS V14.01,2013-04-09 17:20:00,
2013-04-09 10:22:00,48.4,41.2,30.33,SSW,195,2.0,4.0,76,0.00,,---,0.00,VWS V14.01,2013-04-09 17:22:00,
2013-04-09 10:25:00,48.4,41.5,30.33,SSE,159,2.0,4.0,77,0.00,,---,0.00,VWS V14.01,2013-04-09 17:25:00,
2013-04-09 10:27:00,48.4,41.5,30.34,West,266,2.0,2.0,77,0.00,,---,0.00,VWS V14.01,2013-04-09 17:27:00,
2013-04-09 10:30:00,48.4,41.2,30.34,WSW,240,2.0,5.0,76,0.00,,---,0.00,VWS V14.01,2013-04-09 17:30:00,
2013-04-09 10:32:00,48.4,41.5,30.34,SSW,205,0.0,3.0,77,0.00,,---,0.00,VWS V14.01,2013-04-09 17:32:00,
2013-04-09 10:35:00,48.5,41.6,30.34,South,176,1.0,3.0,77,0.00,,---,0.00,VWS V14.01,2013-04-09 17:35:00,
2013-04-09 10:37:00,48.6,41.7,30.34,SSW,200,1.0,1.0,77,0.00,,---,0.00,VWS V14.01,2013-04-09 17:37:00,
2013-04-09 10:40:00,48.6,41.4,30.34,WSW,254,0.0,5.0,76,0.00,,---,0.00,VWS V14.01,2013-04-09 17:40:00,
2013-04-09 10:42:00,48.6,41.4,30.34,South,174,3.0,7.0,76,0.00,,---,0.00,VWS V14.01,2013-04-09 17:42:00,
2013-04-09 10:45:00,48.6,41.7,30.34,WSW,245,0.0,7.0,77,0.00,,---,0.00,VWS V14.01,2013-04-09 17:45:00,
2013-04-09 10:47:00,48.6,41.0,30.34,SW,230,3.0,3.0,75,0.00,,---,0.00,VWS V14.01,2013-04-09 17:47:00,
2013-04-09 10:50:00,48.5,41.3,30.34,SE,139,6.0,7.0,76,0.00,,---,0.00,VWS V14.01,2013-04-09 17:50:00,
2013-04-09 10:52:00,48.5,41.0,30.34,SSE,160,1.0,6.0,75,0.00,,---,0.00,VWS V14.01,2013-04-09 17:52:00,
2013-04-09 10:55:00,48.5,41.0,30.34,SE,143,3.0,6.0,75,0.00,,---,0.00,VWS V14.01,2013-04-09 17:55:00,
2013-04-09 10:57:00,48.5,41.0,30.34,West,263,1.0,3.0,75,0.00,,---,0.00,VWS V14.01,2013-04-09 17:57:00,
2013-04-09 11:00:00,48.6,41.0,30.35,SSW,201,3.0,4.0,75,0.00,,---,0.00,VWS V14.01,2013-04-09 18:00:00,
2013-04-09 11:02:00,48.7,41.1,30.34,SW,218,4.0,5.0,75,0.00,,---,0.00,VWS V14.01,2013-04-09 18:02:00,
2013-04-09 11:05:00,48.7,41.1,30.34,WSW,238,2.0,5.0,75,0.00,,---,0.00,VWS V14.01,2013-04-09 18:05:00,
2013-04-09 11:07:00,48.7,41.1,30.34,SE,136,3.0,5.0,75,0.00,,---,0.00,VWS V14.01,2013-04-09 18:07:00,
2013-04-09 11:10:00,48.8,41.6,30.34,WSW,255,0.0,5.0,76,0.00,,---,0.00,VWS V14.01,2013-04-09 18:10:00,
2013-04-09 11:12:00,48.8,41.2,30.34,SSE,159,7.0,7.0,75,0.00,,---,0.00,VWS V14.01,2013-04-09 18:12:00,
2013-04-09 11:15:00,48.9,41.3,30.35,South,181,1.0,7.0,75,0.00,,---,0.00,VWS V14.01,2013-04-09 18:15:00,
2013-04-09 11:17:00,49.0,41.4,30.35,SW,224,1.0,4.0,75,0.00,,---,0.00,VWS V14.01,2013-04-09 18:17:00,
2013-04-09 11:20:00,49.0,41.1,30.35,South,169,0.0,4.0,74,0.00,,---,0.00,VWS V14.01,2013-04-09 18:20:00,
2013-04-09 11:22:00,49.1,41.9,30.35,SW,219,0.0,2.0,76,0.00,,---,0.00,VWS V14.01,2013-04-09 18:22:00,
2013-04-09 11:25:00,49.1,41.5,30.35,SSE,168,1.0,4.0,75,0.00,,---,0.00,VWS V14.01,2013-04-09 18:25:00,
2013-04-09 11:27:00,49.1,41.2,30.35,SSE,158,6.0,6.0,74,0.00,,---,0.00,VWS V14.01,2013-04-09 18:27:00,
2013-04-09 11:30:00,49.1,41.2,30.35,SW,219,1.0,6.0,74,0.00,,---,0.00,VWS V14.01,2013-04-09 18:30:00,
2013-04-09 11:32:00,49.1,41.2,30.35,WSW,251,3.0,4.0,74,0.00,,---,0.00,VWS V14.01,2013-04-09 18:32:00,
2013-04-09 11:35:00,48.9,41.0,30.35,WSW,242,3.0,9.0,74,0.00,,---,0.00,VWS V14.01,2013-04-09 18:35:00,
2013-04-09 11:37:00,48.8,40.9,30.35,SW,233,2.0,6.0,74,0.00,,---,0.00,VWS V14.01,2013-04-09 18:37:00,
2013-04-09 11:40:00,48.9,41.3,30.35,WSW,251,3.0,6.0,75,0.00,,---,0.00,VWS V14.01,2013-04-09 18:40:00,
2013-04-09 11:42:00,49.0,41.4,30.35,WSW,240,0.0,4.0,75,0.00,,---,0.00,VWS V14.01,2013-04-09 18:42:00,
2013-04-09 11:45:00,49.5,41.9,30.35,West,268,1.0,4.0,75,0.00,,---,0.00,VWS V14.01,2013-04-09 18:45:00,
2013-04-09 11:47:00,49.7,42.1,30.34,WSW,241,2.0,3.0,75,0.00,,---,0.00,VWS V14.01,2013-04-09 18:47:00,
2013-04-09 11:50:00,50.1,41.4,30.34,South,186,2.0,4.0,72,0.00,,---,0.00,VWS V14.01,2013-04-09 18:50:00,
2013-04-09 11:52:00,50.3,42.3,30.34,SSE,156,5.0,5.0,74,0.00,,---,0.00,VWS V14.01,2013-04-09 18:52:00,
2013-04-09 11:55:00,50.8,42.1,30.34,SSE,158,1.0,7.0,72,0.00,,---,0.00,VWS V14.01,2013-04-09 18:55:00,
2013-04-09 11:57:00,51.0,42.3,30.34,SSW,205,2.0,2.0,72,0.00,,---,0.00,VWS V14.01,2013-04-09 18:57:00,
2013-04-09 12:00:00,51.3,42.2,30.34,SE,139,6.0,8.0,71,0.00,,---,0.00,VWS V14.01,2013-04-09 19:00:00,
2013-04-09 12:02:00,51.4,42.3,30.34,SSE,165,3.0,6.0,71,0.00,,---,0.00,VWS V14.01,2013-04-09 19:02:00,
2013-04-09 12:05:00,51.8,42.0,30.33,SE,137,3.0,11.0,69,0.00,,---,0.00,VWS V14.01,2013-04-09 19:05:00,
2013-04-09 12:07:00,51.8,42.0,30.34,South,169,6.0,6.0,69,0.00,,---,0.00,VWS V14.01,2013-04-09 19:07:00,
2013-04-09 12:10:00,52.0,42.2,30.34,West,275,1.0,6.0,69,0.00,,---,0.00,VWS V14.01,2013-04-09 19:10:00,
2013-04-09 12:12:00,52.0,41.4,30.34,SSE,150,1.0,7.0,67,0.00,,---,0.00,VWS V14.01,2013-04-09 19:12:00,
2013-04-09 12:15:00,52.1,42.2,30.34,West,277,1.0,7.0,69,0.00,,---,0.00,VWS V14.01,2013-04-09 19:15:00,
2013-04-09 12:17:00,52.2,42.0,30.34,SSW,201,1.0,6.0,68,0.00,,---,0.00,VWS V14.01,2013-04-09 19:17:00,
2013-04-09 12:20:00,52.3,41.7,30.34,SW,222,2.0,7.0,67,0.00,,---,0.00,VWS V14.01,2013-04-09 19:20:00,
2013-04-09 12:22:00,52.2,42.0,30.34,West,270,2.0,5.0,68,0.00,,---,0.00,VWS V14.01,2013-04-09 19:22:00,
2013-04-09 12:25:00,52.0,41.8,30.34,WSW,252,3.0,6.0,68,0.00,,---,0.00,VWS V14.01,2013-04-09 19:25:00,
2013-04-09 12:27:00,51.8,42.0,30.34,WSW,244,2.0,7.0,69,0.00,,---,0.00,VWS V14.01,2013-04-09 19:27:00,
2013-04-09 12:30:00,51.4,41.6,30.34,SW,222,4.0,9.0,69,0.00,,---,0.00,VWS V14.01,2013-04-09 19:30:00,
2013-04-09 12:32:00,51.2,41.4,30.34,SSW,209,2.0,7.0,69,0.00,,---,0.00,VWS V14.01,2013-04-09 19:32:00,
2013-04-09 12:35:00,51.0,41.9,30.34,WSW,237,2.0,7.0,71,0.00,,---,0.00,VWS V14.01,2013-04-09 19:35:00,
2013-04-09 12:37:00,51.0,41.9,30.34,WSW,247,2.0,5.0,71,0.00,,---,0.00,VWS V14.01,2013-04-09 19:37:00,
2013-04-09 12:40:00,51.0,41.9,30.34,WSW,258,1.0,5.0,71,0.00,,---,0.00,VWS V14.01,2013-04-09 19:40:00,
2013-04-09 12:42:00,51.0,42.3,30.33,SSE,168,1.0,3.0,72,0.00,,---,0.00,VWS V14.01,2013-04-09 19:42:00,
2013-04-09 12:45:00,51.1,41.7,30.33,SW,224,1.0,7.0,70,0.00,,---,0.00,VWS V14.01,2013-04-09 19:45:00,
2013-04-09 12:48:00,51.2,42.1,30.33,SE,127,2.0,3.0,71,0.00,,---,0.00,VWS V14.01,2013-04-09 19:48:00,
2013-04-09 12:50:00,51.2,42.1,30.33,WSW,246,0.0,6.0,71,0.00,,---,0.00,VWS V14.01,2013-04-09 19:50:00,
2013-04-09 12:53:00,51.2,41.8,30.33,SSW,195,1.0,3.0,70,0.00,,---,0.00,VWS V14.01,2013-04-09 19:53:00,
2013-04-09 12:55:00,51.3,42.2,30.33,SW,227,1.0,4.0,71,0.00,,---,0.00,VWS V14.01,2013-04-09 19:55:00,
2013-04-09 12:58:00,51.3,41.5,30.33,SSW,193,5.0,5.0,69,0.00,,---,0.00,VWS V14.01,2013-04-09 19:58:00,
2013-04-09 13:00:00,51.2,40.6,30.33,SSE,165,3.0,7.0,67,0.00,,---,0.00,VWS V14.01,2013-04-09 20:00:00,
2013-04-09 13:03:00,51.1,41.3,30.33,WSW,245,1.0,3.0,69,0.00,,---,0.00,VWS V14.01,2013-04-09 20:03:00,
2013-04-09 13:05:00,51.1,41.3,30.33,West,265,0.0,4.0,69,0.00,,---,0.00,VWS V14.01,2013-04-09 20:05:00,
2013-04-09 13:08:00,51.1,41.3,30.33,SSW,205,1.0,2.0,69,0.00,,---,0.00,VWS V14.01,2013-04-09 20:08:00,
2013-04-09 13:10:00,51.1,41.3,30.33,South,174,2.0,5.0,69,0.00,,---,0.00,VWS V14.01,2013-04-09 20:10:00,
2013-04-09 13:13:00,51.2,41.4,30.33,SSE,158,1.0,5.0,69,0.00,,---,0.00,VWS V14.01,2013-04-09 20:13:00,
2013-04-09 13:15:00,51.2,41.8,30.33,South,175,1.0,7.0,70,0.00,,---,0.00,VWS V14.01,2013-04-09 20:15:00,
2013-04-09 13:18:00,51.2,41.8,30.33,SSW,195,1.0,4.0,70,0.00,,---,0.00,VWS V14.01,2013-04-09 20:18:00,
2013-04-09 13:20:00,51.1,41.3,30.33,SW,233,1.0,4.0,69,0.00,,---,0.00,VWS V14.01,2013-04-09 20:20:00,
2013-04-09 13:23:00,51.2,41.8,30.33,SE,136,2.0,3.0,70,0.00,,---,0.00,VWS V14.01,2013-04-09 20:23:00,
2013-04-09 13:25:00,51.2,41.8,30.33,SSW,203,0.0,3.0,70,0.00,,---,0.00,VWS V14.01,2013-04-09 20:25:00,
2013-04-09 13:28:00,51.3,41.5,30.33,SSE,153,1.0,5.0,69,0.00,,---,0.00,VWS V14.01,2013-04-09 20:28:00,
2013-04-09 13:30:00,51.3,41.1,30.33,SSE,165,3.0,7.0,68,0.00,,---,0.00,VWS V14.01,2013-04-09 20:30:00,
2013-04-09 13:33:00,51.3,41.9,30.33,SSW,210,1.0,4.0,70,0.00,,---,0.00,VWS V14.01,2013-04-09 20:33:00,
2013-04-09 13:35:00,51.3,41.5,30.33,SW,226,3.0,7.0,69,0.00,,---,0.00,VWS V14.01,2013-04-09 20:35:00,
2013-04-09 13:38:00,51.3,41.5,30.33,SSE,156,1.0,3.0,69,0.00,,---,0.00,VWS V14.01,2013-04-09 20:38:00,
2013-04-09 13:40:00,51.3,41.1,30.33,South,190,1.0,8.0,68,0.00,,---,0.00,VWS V14.01,2013-04-09 20:40:00,
2013-04-09 13:43:00,51.2,41.4,30.32,SSE,155,5.0,9.0,69,0.00,,---,0.00,VWS V14.01,2013-04-09 20:43:00,
2013-04-09 13:45:00,51.1,41.7,30.32,South,172,1.0,9.0,70,0.00,,---,0.00,VWS V14.01,2013-04-09 20:45:00,
2013-04-09 13:48:00,51.1,41.3,30.32,SSE,157,1.0,4.0,69,0.00,,---,0.00,VWS V14.01,2013-04-09 20:48:00,
2013-04-09 13:50:00,51.1,40.9,30.32,ESE,122,1.0,6.0,68,0.00,,---,0.00,VWS V14.01,2013-04-09 20:50:00,
2013-04-09 13:53:00,51.1,41.3,30.32,SW,214,1.0,3.0,69,0.00,,---,0.00,VWS V14.01,2013-04-09 20:53:00,
2013-04-09 13:55:00,51.0,40.8,30.32,East,85,4.0,6.0,68,0.00,,---,0.00,VWS V14.01,2013-04-09 20:55:00,
2013-04-09 13:58:00,51.0,40.1,30.31,East,89,3.0,8.0,66,0.00,,---,0.00,VWS V14.01,2013-04-09 20:58:00,
2013-04-09 14:00:00,51.0,40.4,30.31,SSE,157,2.0,8.0,67,0.00,,---,0.00,VWS V14.01,2013-04-09 21:00:00,
2013-04-09 14:03:00,51.1,40.5,30.31,SE,139,3.0,4.0,67,0.00,,---,0.00,VWS V14.01,2013-04-09 21:03:00,
2013-04-09 14:05:00,51.2,40.6,30.31,SSE,153,0.0,4.0,67,0.00,,---,0.00,VWS V14.01,2013-04-09 21:05:00,
2013-04-09 14:08:00,51.3,40.7,30.31,SE,124,0.0,3.0,67,0.00,,---,0.00,VWS V14.01,2013-04-09 21:08:00,
2013-04-09 14:10:00,51.5,40.9,30.31,SE,146,0.0,5.0,67,0.00,,---,0.00,VWS V14.01,2013-04-09 21:10:00,
2013-04-09 14:13:00,51.6,41.0,30.31,South,174,0.0,4.0,67,0.00,,---,0.00,VWS V14.01,2013-04-09 21:13:00,
2013-04-09 14:15:00,51.9,41.3,30.32,South,172,1.0,4.0,67,0.00,,---,0.00,VWS V14.01,2013-04-09 21:15:00,
2013-04-09 14:18:00,52.0,40.6,30.32,SW,231,1.0,4.0,65,0.00,,---,0.00,VWS V14.01,2013-04-09 21:18:00,
2013-04-09 14:20:00,52.1,40.7,30.32,SSE,162,1.0,4.0,65,0.00,,---,0.00,VWS V14.01,2013-04-09 21:20:00,
2013-04-09 14:23:00,52.1,41.1,30.32,SW,227,7.0,7.0,66,0.00,,---,0.00,VWS V14.01,2013-04-09 21:23:00,
2013-04-09 14:25:00,51.7,41.1,30.32,WSW,247,5.0,7.0,67,0.00,,---,0.00,VWS V14.01,2013-04-09 21:25:00,
2013-04-09 14:28:00,51.4,40.8,30.32,SW,235,3.0,9.0,67,0.00,,---,0.00,VWS V14.01,2013-04-09 21:28:00,
2013-04-09 14:30:00,51.2,40.6,30.32,SW,226,2.0,9.0,67,0.00,,---,0.00,VWS V14.01,2013-04-09 21:30:00,
2013-04-09 14:33:00,51.1,40.5,30.32,SW,216,4.0,7.0,67,0.00,,---,0.00,VWS V14.01,2013-04-09 21:33:00,
2013-04-09 14:35:00,51.0,40.8,30.31,West,268,2.0,9.0,68,0.00,,---,0.00,VWS V14.01,2013-04-09 21:35:00,
2013-04-09 14:38:00,51.0,40.8,30.31,SW,232,9.0,9.0,68,0.00,,---,0.00,VWS V14.01,2013-04-09 21:38:00,
2013-04-09 14:40:00,51.0,40.8,30.31,SSW,210,4.0,9.0,68,0.00,,---,0.00,VWS V14.01,2013-04-09 21:40:00,
2013-04-09 14:43:00,51.1,41.3,30.31,WSW,243,2.0,6.0,69,0.00,,---,0.00,VWS V14.01,2013-04-09 21:43:00,
2013-04-09 14:45:00,51.2,41.8,30.31,West,259,5.0,6.0,70,0.00,,---,0.00,VWS V14.01,2013-04-09 21:45:00,
2013-04-09 14:48:00,51.3,41.9,30.31,West,278,5.0,8.0,70,0.00,,---,0.00,VWS V14.01,2013-04-09 21:48:00,
2013-04-09 14:50:00,51.2,41.8,30.32,SSE,160,3.0,10.0,70,0.00,,---,0.00,VWS V14.01,2013-04-09 21:50:00,
2013-04-09 14:53:00,51.3,41.9,30.32,SSE,159,6.0,7.0,70,0.00,,---,0.00,VWS V14.01,2013-04-09 21:53:00,
2013-04-09 14:55:00,51.4,41.6,30.32,SSE,147,2.0,8.0,69,0.00,,---,0.00,VWS V14.01,2013-04-09 21:55:00,
2013-04-09 14:58:00,51.4,41.6,30.32,South,174,2.0,7.0,69,0.00,,---,0.00,VWS V14.01,2013-04-09 21:58:00,
2013-04-09 15:00:00,51.2,41.0,30.31,West,260,2.0,9.0,68,0.00,,---,0.00,VWS V14.01,2013-04-09 22:00:00,
2013-04-09 15:03:00,51.2,41.8,30.31,WSW,237,3.0,4.0,70,0.00,,---,0.00,VWS V14.01,2013-04-09 22:03:00,
2013-04-09 15:05:00,51.3,41.1,30.31,SSE,165,8.0,8.0,68,0.00,,---,0.00,VWS V14.01,2013-04-09 22:05:00,
2013-04-09 15:08:00,51.3,41.1,30.31,West,281,4.0,9.0,68,0.00,,---,0.00,VWS V14.01,2013-04-09 22:08:00,
2013-04-09 15:10:00,51.5,41.3,30.30,SW,224,1.0,9.0,68,0.00,,---,0.00,VWS V14.01,2013-04-09 22:10:00,
2013-04-09 15:13:00,51.7,41.5,30.31,WSW,240,2.0,5.0,68,0.00,,---,0.00,VWS V14.01,2013-04-09 22:13:00,
2013-04-09 15:15:00,51.9,41.7,30.31,SE,127,4.0,8.0,68,0.00,,---,0.00,VWS V14.01,2013-04-09 22:15:00,
2013-04-09 15:18:00,51.9,41.3,30.31,SE,138,5.0,7.0,67,0.00,,---,0.00,VWS V14.01,2013-04-09 22:18:00,
2013-04-09 15:20:00,51.8,41.2,30.31,SSE,165,6.0,9.0,67,0.00,,---,0.00,VWS V14.01,2013-04-09 22:20:00,
2013-04-09 15:23:00,51.8,41.2,30.31,SSW,202,0.0,6.0,67,0.00,,---,0.00,VWS V14.01,2013-04-09 22:23:00,
2013-04-09 15:25:00,52.0,41.4,30.31,SSE,150,0.0,7.0,67,0.00,,---,0.00,VWS V14.01,2013-04-09 22:25:00,
2013-04-09 15:28:00,52.1,41.5,30.30,SSE,157,2.0,4.0,67,0.00,,---,0.00,VWS V14.01,2013-04-09 22:28:00,
2013-04-09 15:30:00,52.2,41.2,30.30,SW,217,0.0,4.0,66,0.00,,---,0.00,VWS V14.01,2013-04-09 22:30:00,
2013-04-09 15:33:00,52.2,41.2,30.30,SSW,210,1.0,8.0,66,0.00,,---,0.00,VWS V14.01,2013-04-09 22:33:00,
2013-04-09 15:35:00,52.0,40.2,30.30,SSE,166,0.0,8.0,64,0.00,,---,0.00,VWS V14.01,2013-04-09 22:35:00,
2013-04-09 15:38:00,51.9,39.7,30.30,SSW,210,7.0,7.0,63,0.00,,---,0.00,VWS V14.01,2013-04-09 22:38:00,
2013-04-09 15:40:00,51.8,39.6,30.30,South,173,3.0,7.0,63,0.00,,---,0.00,VWS V14.01,2013-04-09 22:40:00,
2013-04-09 15:43:00,51.9,39.3,30.30,South,184,5.0,7.0,62,0.00,,---,0.00,VWS V14.01,2013-04-09 22:43:00,
2013-04-09 15:45:00,51.9,39.7,30.30,South,191,5.0,8.0,63,0.00,,---,0.00,VWS V14.01,2013-04-09 22:45:00,
2013-04-09 15:48:00,51.9,39.3,30.30,SSE,156,1.0,8.0,62,0.00,,---,0.00,VWS V14.01,2013-04-09 22:48:00,
2013-04-09 15:50:00,52.1,39.9,30.29,SW,228,1.0,8.0,63,0.00,,---,0.00,VWS V14.01,2013-04-09 22:50:00,
2013-04-09 15:53:00,52.4,40.2,30.29,SSW,212,1.0,3.0,63,0.00,,---,0.00,VWS V14.01,2013-04-09 22:53:00,
2013-04-09 15:55:00,52.6,39.5,30.29,SE,132,1.0,6.0,61,0.00,,---,0.00,VWS V14.01,2013-04-09 22:55:00,
2013-04-09 15:58:00,52.7,39.6,30.29,SSE,148,2.0,4.0,61,0.00,,---,0.00,VWS V14.01,2013-04-09 22:58:00,
2013-04-09 16:00:00,52.9,40.2,30.29,South,174,5.0,5.0,62,0.00,,---,0.00,VWS V14.01,2013-04-09 23:00:00,
2013-04-09 16:03:00,53.0,39.9,30.29,SSW,208,1.0,5.0,61,0.00,,---,0.00,VWS V14.01,2013-04-09 23:03:00,
2013-04-09 16:05:00,53.2,40.1,30.29,East,98,4.0,6.0,61,0.00,,---,0.00,VWS V14.01,2013-04-09 23:05:00,
2013-04-09 16:08:00,53.1,39.6,30.29,SE,139,6.0,7.0,60,0.00,,---,0.00,VWS V14.01,2013-04-09 23:08:00,
2013-04-09 16:10:00,53.0,39.5,30.28,SSE,150,2.0,7.0,60,0.00,,---,0.00,VWS V14.01,2013-04-09 23:10:00,
2013-04-09 16:13:00,53.1,39.2,30.28,SSE,167,5.0,5.0,59,0.00,,---,0.00,VWS V14.01,2013-04-09 23:13:00,
2013-04-09 16:15:00,53.3,39.3,30.28,SSW,192,2.0,6.0,59,0.00,,---,0.00,VWS V14.01,2013-04-09 23:15:00,
2013-04-09 16:18:00,53.3,38.9,30.28,South,179,2.0,4.0,58,0.00,,---,0.00,VWS V14.01,2013-04-09 23:18:00,
2013-04-09 16:20:00,53.4,39.5,30.29,ESE,114,3.0,6.0,59,0.00,,---,0.00,VWS V14.01,2013-04-09 23:20:00,
2013-04-09 16:23:00,53.5,39.5,30.29,SE,140,2.0,4.0,59,0.00,,---,0.00,VWS V14.01,2013-04-09 23:23:00,
2013-04-09 16:25:00,53.6,39.2,30.29,South,170,5.0,10.0,58,0.00,,---,0.00,VWS V14.01,2013-04-09 23:25:00,
2013-04-09 16:28:00,53.6,39.6,30.29,SSE,156,4.0,5.0,59,0.00,,---,0.00,VWS V14.01,2013-04-09 23:28:00,
2013-04-09 16:30:00,53.7,40.2,30.29,SW,219,5.0,7.0,60,0.00,,---,0.00,VWS V14.01,2013-04-09 23:30:00,
2013-04-09 16:33:00,53.7,39.7,30.29,South,174,5.0,6.0,59,0.00,,---,0.00,VWS V14.01,2013-04-09 23:33:00,
2013-04-09 16:35:00,53.6,40.1,30.29,South,177,5.0,9.0,60,0.00,,---,0.00,VWS V14.01,2013-04-09 23:35:00,
2013-04-09 16:38:00,53.6,40.1,30.29,SSE,154,4.0,6.0,60,0.00,,---,0.00,VWS V14.01,2013-04-09 23:38:00,
2013-04-09 16:40:00,53.5,40.4,30.29,SE,146,1.0,7.0,61,0.00,,---,0.00,VWS V14.01,2013-04-09 23:40:00,
2013-04-09 16:43:00,53.5,40.4,30.28,South,170,5.0,5.0,61,0.00,,---,0.00,VWS V14.01,2013-04-09 23:43:00,
2013-04-09 16:45:00,53.6,40.9,30.28,SSE,156,3.0,7.0,62,0.00,,---,0.00,VWS V14.01,2013-04-09 23:45:00,
2013-04-09 16:48:00,53.7,41.0,30.28,SW,221,1.0,7.0,62,0.00,,---,0.00,VWS V14.01,2013-04-09 23:48:00,
2013-04-09 16:50:00,53.8,40.7,30.28,WSW,242,1.0,7.0,61,0.00,,---,0.00,VWS V14.01,2013-04-09 23:50:00,
2013-04-09 16:53:00,53.8,41.1,30.28,SSE,162,2.0,6.0,62,0.00,,---,0.00,VWS V14.01,2013-04-09 23:53:00,
2013-04-09 16:55:00,53.8,41.1,30.28,SSE,158,4.0,6.0,62,0.00,,---,0.00,VWS V14.01,2013-04-09 23:55:00,
2013-04-09 16:58:00,53.7,41.0,30.28,SE,136,2.0,6.0,62,0.00,,---,0.00,VWS V14.01,2013-04-09 23:58:00,
2013-04-09 17:00:00,53.7,41.0,30.28,SW,233,0.0,7.0,62,0.00,,---,0.00,VWS V14.01,2013-04-10 00:00:00,
2013-04-09 17:03:00,53.6,41.3,30.28,SSW,213,4.0,7.0,63,0.00,,---,0.00,VWS V14.01,2013-04-10 00:03:00,
2013-04-09 17:05:00,53.4,40.7,30.28,SSE,153,6.0,8.0,62,0.00,,---,0.00,VWS V14.01,2013-04-10 00:05:00,
2013-04-09 17:08:00,53.3,41.0,30.28,South,172,1.0,8.0,63,0.00,,---,0.00,VWS V14.01,2013-04-10 00:08:00,
2013-04-09 17:10:00,53.2,40.5,30.28,South,189,1.0,8.0,62,0.00,,---,0.00,VWS V14.01,2013-04-10 00:10:00,
2013-04-09 17:13:00,53.2,41.0,30.28,South,191,5.0,8.0,63,0.00,,---,0.00,VWS V14.01,2013-04-10 00:13:00,
2013-04-09 17:15:00,53.0,40.8,30.28,SSE,161,5.0,8.0,63,0.00,,---,0.00,VWS V14.01,2013-04-10 00:15:00,
2013-04-09 17:18:00,53.0,40.3,30.28,South,174,3.0,7.0,62,0.00,,---,0.00,VWS V14.01,2013-04-10 00:18:00,
2013-04-09 17:20:00,52.9,40.2,30.28,SE,136,3.0,7.0,62,0.00,,---,0.00,VWS V14.01,2013-04-10 00:20:00,
2013-04-09 17:23:00,52.9,40.7,30.28,SW,215,0.0,5.0,63,0.00,,---,0.00,VWS V14.01,2013-04-10 00:23:00,
2013-04-09 17:25:00,52.9,40.2,30.28,SE,134,3.0,7.0,62,0.00,,---,0.00,VWS V14.01,2013-04-10 00:25:00,
2013-04-09 17:28:00,52.9,40.2,30.28,SSE,162,1.0,4.0,62,0.00,,---,0.00,VWS V14.01,2013-04-10 00:28:00,
2013-04-09 17:30:00,52.9,40.7,30.28,SSE,165,1.0,5.0,63,0.00,,---,0.00,VWS V14.01,2013-04-10 00:30:00,
2013-04-09 17:33:00,52.9,40.7,30.28,SSE,153,1.0,3.0,63,0.00,,---,0.00,VWS V14.01,2013-04-10 00:33:00,
2013-04-09 17:35:00,53.0,40.8,30.28,South,178,0.0,5.0,63,0.00,,---,0.00,VWS V14.01,2013-04-10 00:35:00,
2013-04-09 17:38:00,53.0,41.2,30.27,SE,146,1.0,5.0,64,0.00,,---,0.00,VWS V14.01,2013-04-10 00:38:00,
2013-04-09 17:40:00,53.1,40.8,30.27,SSE,147,3.0,7.0,63,0.00,,---,0.00,VWS V14.01,2013-04-10 00:40:00,
2013-04-09 17:43:00,53.1,40.8,30.27,SE,139,1.0,4.0,63,0.00,,---,0.00,VWS V14.01,2013-04-10 00:43:00,
2013-04-09 17:45:00,53.1,40.8,30.27,SSE,161,0.0,4.0,63,0.00,,---,0.00,VWS V14.01,2013-04-10 00:45:00,
2013-04-09 17:48:00,53.1,40.8,30.27,SE,127,1.0,5.0,63,0.00,,---,0.00,VWS V14.01,2013-04-10 00:48:00,
2013-04-09 17:50:00,53.1,41.3,30.27,SW,223,2.0,8.0,64,0.00,,---,0.00,VWS V14.01,2013-04-10 00:50:00,
2013-04-09 17:53:00,53.0,41.2,30.27,SSE,164,2.0,8.0,64,0.00,,---,0.00,VWS V14.01,2013-04-10 00:53:00,
2013-04-09 17:55:00,52.9,41.1,30.27,South,188,3.0,9.0,64,0.00,,---,0.00,VWS V14.01,2013-04-10 00:55:00,
2013-04-09 17:58:00,52.9,41.1,30.27,SE,127,3.0,8.0,64,0.00,,---,0.00,VWS V14.01,2013-04-10 00:58:00,
2013-04-09 18:00:00,52.9,41.5,30.27,South,179,6.0,8.0,65,0.00,,---,0.00,VWS V14.01,2013-04-10 01:00:00,
2013-04-09 18:03:00,52.9,41.5,30.27,South,182,2.0,7.0,65,0.00,,---,0.00,VWS V14.01,2013-04-10 01:03:00,
2013-04-09 18:05:00,52.9,41.5,30.27,SSW,199,5.0,7.0,65,0.00,,---,0.00,VWS V14.01,2013-04-10 01:05:00,
2013-04-09 18:08:00,52.9,41.9,30.27,SSW,200,2.0,11.0,66,0.00,,---,0.00,VWS V14.01,2013-04-10 01:08:00,
2013-04-09 18:10:00,52.9,41.9,30.27,South,179,4.0,11.0,66,0.00,,---,0.00,VWS V14.01,2013-04-10 01:10:00,
2013-04-09 18:13:00,52.9,41.9,30.27,ESE,121,0.0,4.0,66,0.00,,---,0.00,VWS V14.01,2013-04-10 01:13:00,
2013-04-09 18:15:00,52.9,41.9,30.27,SSE,162,3.0,4.0,66,0.00,,---,0.00,VWS V14.01,2013-04-10 01:15:00,
2013-04-09 18:18:00,52.8,41.8,30.27,SE,140,3.0,3.0,66,0.00,,---,0.00,VWS V14.01,2013-04-10 01:18:00,
2013-04-09 18:20:00,52.8,41.8,30.27,SE,144,3.0,7.0,66,0.00,,---,0.00,VWS V14.01,2013-04-10 01:20:00,
2013-04-09 18:23:00,52.7,41.7,30.26,SE,144,1.0,5.0,66,0.00,,---,0.00,VWS V14.01,2013-04-10 01:23:00,
2013-04-09 18:25:00,52.6,41.6,30.27,South,175,3.0,6.0,66,0.00,,---,0.00,VWS V14.01,2013-04-10 01:25:00,
2013-04-09 18:28:00,52.6,42.0,30.27,SSE,157,3.0,6.0,67,0.00,,---,0.00,VWS V14.01,2013-04-10 01:28:00,
2013-04-09 18:30:00,52.5,41.9,30.26,WSW,240,1.0,6.0,67,0.00,,---,0.00,VWS V14.01,2013-04-10 01:30:00,
2013-04-09 18:33:00,52.5,41.9,30.26,SSW,195,7.0,7.0,67,0.00,,---,0.00,VWS V14.01,2013-04-10 01:33:00,
2013-04-09 18:35:00,52.5,41.9,30.26,SSW,210,3.0,7.0,67,0.00,,---,0.00,VWS V14.01,2013-04-10 01:35:00,
2013-04-09 18:38:00,52.5,42.3,30.26,SE,131,1.0,6.0,68,0.00,,---,0.00,VWS V14.01,2013-04-10 01:38:00,
2013-04-09 18:40:00,52.5,41.9,30.26,SSE,152,4.0,6.0,67,0.00,,---,0.00,VWS V14.01,2013-04-10 01:40:00,
2013-04-09 18:43:00,52.4,41.4,30.26,SSE,150,2.0,7.0,66,0.00,,---,0.00,VWS V14.01,2013-04-10 01:43:00,
2013-04-09 18:45:00,52.4,41.4,30.26,SSE,165,2.0,7.0,66,0.00,,---,0.00,VWS V14.01,2013-04-10 01:45:00,
2013-04-09 18:48:00,52.4,41.4,30.26,South,179,5.0,5.0,66,0.00,,---,0.00,VWS V14.01,2013-04-10 01:48:00,
2013-04-09 18:50:00,52.4,41.4,30.25,SSE,160,2.0,7.0,66,0.00,,---,0.00,VWS V14.01,2013-04-10 01:50:00,
2013-04-09 18:53:00,52.4,41.4,30.25,ESE,118,4.0,5.0,66,0.00,,---,0.00,VWS V14.01,2013-04-10 01:53:00,
2013-04-09 18:55:00,52.4,41.4,30.25,SSW,204,1.0,5.0,66,0.00,,---,0.00,VWS V14.01,2013-04-10 01:55:00,
2013-04-09 18:58:00,52.4,41.4,30.25,South,178,1.0,6.0,66,0.00,,---,0.00,VWS V14.01,2013-04-10 01:58:00,
2013-04-09 19:00:00,52.4,41.4,30.25,SSW,205,1.0,6.0,66,0.00,,---,0.00,VWS V14.01,2013-04-10 02:00:00,
2013-04-09 19:03:00,52.4,41.4,30.25,SE,145,4.0,4.0,66,0.00,,---,0.00,VWS V14.01,2013-04-10 02:03:00,
2013-04-09 19:05:00,52.4,41.0,30.25,SSW,201,1.0,9.0,65,0.00,,---,0.00,VWS V14.01,2013-04-10 02:05:00,
2013-04-09 19:08:00,52.4,41.0,30.25,SSE,160,4.0,7.0,65,0.00,,---,0.00,VWS V14.01,2013-04-10 02:08:00,
2013-04-09 19:10:00,52.4,41.0,30.25,SE,143,4.0,7.0,65,0.00,,---,0.00,VWS V14.01,2013-04-10 02:10:00,
2013-04-09 19:13:00,52.4,41.0,30.24,SE,125,2.0,6.0,65,0.00,,---,0.00,VWS V14.01,2013-04-10 02:13:00,
2013-04-09 19:15:00,52.4,41.4,30.25,SSW,192,2.0,6.0,66,0.00,,---,0.00,VWS V14.01,2013-04-10 02:15:00,
2013-04-09 19:18:00,52.4,40.6,30.25,ESE,113,2.0,8.0,64,0.00,,---,0.00,VWS V14.01,2013-04-10 02:18:00,
2013-04-09 19:20:00,52.4,41.0,30.25,SSE,161,2.0,8.0,65,0.00,,---,0.00,VWS V14.01,2013-04-10 02:20:00,
2013-04-09 19:23:00,52.4,41.0,30.24,SSE,168,1.0,5.0,65,0.00,,---,0.00,VWS V14.01,2013-04-10 02:23:00,
2013-04-09 19:25:00,52.4,41.0,30.24,SE,128,2.0,5.0,65,0.00,,---,0.00,VWS V14.01,2013-04-10 02:25:00,
2013-04-09 19:28:00,52.4,41.0,30.24,South,177,3.0,7.0,65,0.00,,---,0.00,VWS V14.01,2013-04-10 02:28:00,
2013-04-09 19:30:00,52.4,41.0,30.24,SSE,149,4.0,7.0,65,0.00,,---,0.00,VWS V14.01,2013-04-10 02:30:00,
2013-04-09 19:33:00,52.4,41.0,30.24,SSW,192,1.0,4.0,65,0.00,,---,0.00,VWS V14.01,2013-04-10 02:33:00,
2013-04-09 19:35:00,52.4,41.0,30.24,SSE,161,3.0,4.0,65,0.00,,---,0.00,VWS V14.01,2013-04-10 02:35:00,
2013-04-09 19:38:00,52.4,41.0,30.24,SE,135,4.0,5.0,65,0.00,,---,0.00,VWS V14.01,2013-04-10 02:38:00,
2013-04-09 19:40:00,52.4,41.0,30.24,South,188,4.0,5.0,65,0.00,,---,0.00,VWS V14.01,2013-04-10 02:40:00,
2013-04-09 19:43:00,52.3,40.9,30.24,SE,139,3.0,7.0,65,0.00,,---,0.00,VWS V14.01,2013-04-10 02:43:00,
2013-04-09 19:45:00,52.3,40.9,30.24,SE,146,1.0,7.0,65,0.00,,---,0.00,VWS V14.01,2013-04-10 02:45:00,
2013-04-09 19:48:00,52.3,41.3,30.24,SE,127,1.0,4.0,66,0.00,,---,0.00,VWS V14.01,2013-04-10 02:48:00,
2013-04-09 19:50:00,52.3,41.3,30.24,ESE,108,3.0,6.0,66,0.00,,---,0.00,VWS V14.01,2013-04-10 02:50:00,
2013-04-09 19:53:00,52.3,41.3,30.24,South,176,4.0,4.0,66,0.00,,---,0.00,VWS V14.01,2013-04-10 02:53:00,
2013-04-09 19:55:00,52.3,40.9,30.24,SSE,162,2.0,7.0,65,0.00,,---,0.00,VWS V14.01,2013-04-10 02:55:00,
2013-04-09 19:58:00,52.3,40.9,30.23,ESE,117,1.0,5.0,65,0.00,,---,0.00,VWS V14.01,2013-04-10 02:58:00,
2013-04-09 20:00:00,52.3,40.9,30.24,SSW,200,2.0,5.0,65,0.00,,---,0.00,VWS V14.01,2013-04-10 03:00:00,
2013-04-09 20:03:00,52.3,41.3,30.23,SE,136,2.0,4.0,66,0.00,,---,0.00,VWS V14.01,2013-04-10 03:03:00,
2013-04-09 20:05:00,52.3,41.3,30.23,SE,133,1.0,6.0,66,0.00,,---,0.00,VWS V14.01,2013-04-10 03:05:00,
2013-04-09 20:08:00,52.3,41.3,30.23,South,174,2.0,7.0,66,0.00,,---,0.00,VWS V14.01,2013-04-10 03:08:00,
2013-04-09 20:10:00,52.3,41.3,30.23,SE,132,1.0,7.0,66,0.00,,---,0.00,VWS V14.01,2013-04-10 03:10:00,
2013-04-09 20:13:00,52.3,40.9,30.23,ESE,113,2.0,6.0,65,0.00,,---,0.00,VWS V14.01,2013-04-10 03:13:00,
2013-04-09 20:15:00,52.3,41.3,30.23,SSE,160,3.0,6.0,66,0.00,,---,0.00,VWS V14.01,2013-04-10 03:15:00,
2013-04-09 20:18:00,52.2,40.8,30.23,SE,143,2.0,4.0,65,0.00,,---,0.00,VWS V14.01,2013-04-10 03:18:00,
2013-04-09 20:20:00,52.3,41.3,30.23,South,175,4.0,6.0,66,0.00,,---,0.00,VWS V14.01,2013-04-10 03:20:00,
2013-04-09 20:23:00,52.2,41.2,30.24,SE,145,2.0,4.0,66,0.00,,---,0.00,VWS V14.01,2013-04-10 03:23:00,
2013-04-09 20:25:00,52.2,41.2,30.24,SSW,198,4.0,4.0,66,0.00,,---,0.00,VWS V14.01,2013-04-10 03:25:00,
2013-04-09 20:28:00,52.2,41.2,30.23,SSE,162,1.0,5.0,66,0.00,,---,0.00,VWS V14.01,2013-04-10 03:28:00,
2013-04-09 20:30:00,52.2,40.8,30.23,SE,134,3.0,5.0,65,0.00,,---,0.00,VWS V14.01,2013-04-10 03:30:00,
2013-04-09 20:33:00,52.2,41.2,30.23,SE,132,2.0,3.0,66,0.00,,---,0.00,VWS V14.01,2013-04-10 03:33:00,
2013-04-09 20:35:00,52.2,40.8,30.23,SE,131,0.0,5.0,65,0.00,,---,0.00,VWS V14.01,2013-04-10 03:35:00,
2013-04-09 20:38:00,52.2,41.2,30.23,SE,142,0.0,2.0,66,0.00,,---,0.00,VWS V14.01,2013-04-10 03:38:00,
2013-04-09 20:40:00,52.2,41.2,30.23,ESE,104,3.0,4.0,66,0.00,,---,0.00,VWS V14.01,2013-04-10 03:40:00,
2013-04-09 20:43:00,52.2,41.2,30.23,SSE,163,2.0,3.0,66,0.00,,---,0.00,VWS V14.01,2013-04-10 03:43:00,
2013-04-09 20:45:00,52.2,41.2,30.23,SSW,192,1.0,5.0,66,0.00,,---,0.00,VWS V14.01,2013-04-10 03:45:00,
2013-04-09 20:48:00,52.2,41.2,30.23,ESE,111,6.0,6.0,66,0.00,,---,0.00,VWS V14.01,2013-04-10 03:48:00,
2013-04-09 20:50:00,52.2,41.2,30.22,SSE,148,1.0,6.0,66,0.00,,---,0.00,VWS V14.01,2013-04-10 03:50:00,
2013-04-09 20:53:00,52.3,41.3,30.22,ESE,111,4.0,4.0,66,0.00,,---,0.00,VWS V14.01,2013-04-10 03:53:00,
2013-04-09 20:55:00,52.3,41.3,30.22,SE,127,1.0,4.0,66,0.00,,---,0.00,VWS V14.01,2013-04-10 03:55:00,
2013-04-09 20:58:00,52.2,40.8,30.22,SE,133,3.0,8.0,65,0.00,,---,0.00,VWS V14.01,2013-04-10 03:58:00,
2013-04-09 21:00:00,52.3,41.3,30.22,SE,134,1.0,8.0,66,0.00,,---,0.00,VWS V14.01,2013-04-10 04:00:00,
2013-04-09 21:05:00,52.3,41.3,30.22,South,184,2.0,5.0,66,0.00,,---,0.00,VWS V14.01,2013-04-10 04:05:00,
2013-04-09 21:10:00,52.4,41.0,30.23,ESE,118,5.0,8.0,65,0.00,,---,0.00,VWS V14.01,2013-04-10 04:10:00,
2013-04-09 21:15:00,52.4,41.0,30.23,SE,143,3.0,8.0,65,0.00,,---,0.00,VWS V14.01,2013-04-10 04:15:00,
2013-04-09 21:20:00,52.4,41.0,30.22,SE,139,1.0,7.0,65,0.00,,---,0.00,VWS V14.01,2013-04-10 04:20:00,
2013-04-09 21:25:00,52.4,41.0,30.22,SSE,160,2.0,7.0,65,0.00,,---,0.00,VWS V14.01,2013-04-10 04:25:00,
2013-04-09 21:30:00,52.4,41.4,30.22,South,181,3.0,5.0,66,0.00,,---,0.00,VWS V14.01,2013-04-10 04:30:00,
2013-04-09 21:35:00,52.3,41.3,30.22,SSE,158,2.0,10.0,66,0.00,,---,0.00,VWS V14.01,2013-04-10 04:35:00,
2013-04-09 21:40:00,52.4,41.4,30.23,SE,134,5.0,8.0,66,0.00,,---,0.00,VWS V14.01,2013-04-10 04:40:00,
2013-04-09 21:45:00,52.4,41.4,30.23,South,180,3.0,6.0,66,0.00,,---,0.00,VWS V14.01,2013-04-10 04:45:00,
2013-04-09 21:50:00,52.3,41.3,30.22,SE,143,4.0,7.0,66,0.00,,---,0.00,VWS V14.01,2013-04-10 04:50:00,
2013-04-09 21:55:00,52.3,41.3,30.22,South,175,5.0,8.0,66,0.00,,---,0.00,VWS V14.01,2013-04-10 04:55:00,
2013-04-09 22:00:00,52.3,41.7,30.22,SSW,193,3.0,5.0,67,0.00,,---,0.00,VWS V14.01,2013-04-10 05:00:00,
2013-04-09 22:05:00,52.3,41.7,30.21,South,188,3.0,5.0,67,0.00,,---,0.00,VWS V14.01,2013-04-10 05:05:00,
2013-04-09 22:10:00,52.2,42.0,30.21,SSW,207,2.0,5.0,68,0.00,,---,0.00,VWS V14.01,2013-04-10 05:10:00,
2013-04-09 22:15:00,52.2,42.0,30.21,SSW,210,2.0,7.0,68,0.00,,---,0.00,VWS V14.01,2013-04-10 05:15:00,
2013-04-09 22:20:00,52.1,41.9,30.21,SE,139,1.0,6.0,68,0.00,,---,0.00,VWS V14.01,2013-04-10 05:20:00,
2013-04-09 22:25:00,52.2,42.0,30.21,South,170,11.0,11.0,68,0.00,,---,0.00,VWS V14.01,2013-04-10 05:25:00,
2013-04-09 22:30:00,52.2,42.0,30.21,SE,144,7.0,11.0,68,0.00,,---,0.00,VWS V14.01,2013-04-10 05:30:00,
2013-04-09 22:35:00,52.2,42.0,30.20,SSE,165,7.0,8.0,68,0.00,,---,0.00,VWS V14.01,2013-04-10 05:35:00,
2013-04-09 22:40:00,52.2,42.0,30.20,South,180,5.0,11.0,68,0.00,,---,0.00,VWS V14.01,2013-04-10 05:40:00,
2013-04-09 22:45:00,52.2,42.3,30.20,SSE,158,9.0,12.0,69,0.00,,---,0.00,VWS V14.01,2013-04-10 05:45:00,
2013-04-09 22:50:00,52.2,42.3,30.20,West,278,2.0,9.0,69,0.00,,---,0.00,VWS V14.01,2013-04-10 05:50:00,
2013-04-09 22:55:00,52.1,42.6,30.20,SSE,157,4.0,8.0,70,0.00,,---,0.00,VWS V14.01,2013-04-10 05:55:00,
2013-04-09 23:00:00,51.9,42.4,30.20,SSW,209,0.0,5.0,70,0.00,,---,0.00,VWS V14.01,2013-04-10 06:00:00,
2013-04-09 23:05:00,51.8,42.3,30.20,SSE,149,6.0,6.0,70,0.00,,---,0.00,VWS V14.01,2013-04-10 06:05:00,
2013-04-09 23:10:00,51.7,42.6,30.20,WSW,243,2.0,9.0,71,0.00,,---,0.00,VWS V14.01,2013-04-10 06:10:00,
2013-04-09 23:15:00,51.5,42.4,30.20,SSE,153,6.0,8.0,71,0.00,,---,0.00,VWS V14.01,2013-04-10 06:15:00,
2013-04-09 23:20:00,51.3,42.6,30.19,WSW,246,1.0,8.0,72,0.00,,---,0.00,VWS V14.01,2013-04-10 06:20:00,
2013-04-09 23:25:00,51.2,42.1,30.18,SSE,151,3.0,12.0,71,0.00,,---,0.00,VWS V14.01,2013-04-10 06:25:00,
2013-04-09 23:30:00,51.1,42.4,30.19,SSW,193,2.0,11.0,72,0.00,,---,0.00,VWS V14.01,2013-04-10 06:30:00,
2013-04-09 23:35:00,51.0,42.7,30.18,SSE,153,7.0,11.0,73,0.00,,---,0.00,VWS V14.01,2013-04-10 06:35:00,
2013-04-09 23:40:00,51.0,42.3,30.18,SSE,147,5.0,8.0,72,0.00,,---,0.00,VWS V14.01,2013-04-10 06:40:00,
2013-04-09 23:45:00,51.0,42.7,30.18,South,179,2.0,10.0,73,0.00,,---,0.00,VWS V14.01,2013-04-10 06:45:00,
2013-04-09 23:50:00,51.0,42.7,30.19,SSE,150,7.0,9.0,73,0.00,,---,0.00,VWS V14.01,2013-04-10 06:50:00,
2013-04-09 23:55:00,50.9,42.6,30.19,SSW,201,2.0,10.0,73,0.00,,---,0.00,VWS V14.01,2013-04-10 06:55:00,